User: anonymous   Login
Location: Dampvalley
(47.9094°N, 6.1967°E)
Time: 01:56:14
(UTC+00:00)
Language:

Cosmos 1992 Rocket - Orbit

View from above orbital plane
View from above orbital plane
View from above satellite
View from above satellite

Ground track
Ground track

The orbit data is extracted from the following two-line orbital elements,

1 19770U 89005B   21127.90420378  .00000095  00000-0  39445-4 0  9995
2 19770  74.0439 310.6289 0004378  28.6956  75.1879 14.38871135690890
Epoch (UTC): 07 May 2021 21:42:03
Eccentricity: 0.0004378
inclination: 74.0439°
perigee height: 759 km
apogee height: 765 km
right ascension of ascending node: 310.6289°
argument of perigee: 28.6956°
revolutions per day: 14.38871135
mean anomaly at epoch: 75.1879°
orbit number at epoch: 69089

The dashed part of the orbit path shows where the satellite is in the earth's shadow,  

DLR